Weather History for Sandberg, CA

Change the Weather History Date:

Friday, January 25, 2013

  Actual Average Record
Temperature  
Mean Temperature 46 °F 43 °F  
Max Temperature 47 °F 49 °F 67 °F (1975)
Min Temperature 45 °F 37 °F 18 °F (1950)
Degree Days  
Heating Degree Days 19 22  
Month to date heating degree days 548 553  
Since 1 July heating degree days 1722 2034  
Cooling Degree Days 0 0  
Month to date cooling degree days 0 0  
Year to date cooling degree days 0 0  
Moisture  
Dew Point 42 °F    
Average Humidity 83    
Maximum Humidity 89    
Minimum Humidity 76    
Precipitation  
Precipitation 0.37 in 0.04 in 1.76 in (1969)
Month to date precipitation 1.22 2.11  
Year to date precipitation 1.22 2.11  
Since 1 July precipitation 2.59 5.96  
Sea Level Pressure  
Sea Level Pressure 30.15 in    
Wind  
Wind Speed 20 mph (East)    
Max Wind Speed 26 mph    
Max Gust Speed 33 mph    
Visibility 3 miles    
Events Fog , Rain    
T = Trace of Precipitation, MM = Missing Value Source: NWS Daily Summary

Daily Weather History Graph

Daily Weather History Graph

Search for Another Location

Airport:

Trip Planner

Search our weather history database for the weather conditions in past years. The results will help you decide how hot, cold, wet, or windy it might be!

Date:

Astronomy

Jan. 25, 2013 Rise Set
Actual Time 6:57 AM PST 5:17 PM PST
Civil Twilight 6:30 AM PST 5:44 PM PST
Nautical Twilight 6:00 AM PST 6:14 PM PST
Astronomical Twilight 5:30 AM PST 6:44 PM PST
Moon 4:18 PM PST (1/25) 5:40 AM PST (1/25)
Length of Visible Light 11h 13m
Length of Day
10h 19m
Waxing Gibbous, 98% of the Moon is Illuminated
Jan 25
Waxing Gibbous
Jan 26
Full
Feb 3
Last Quarter
Feb 9
New
Feb 17
First Quarter

Hourly Weather History & Observations

Time (PST) Temp. Windchill Dew Point Humidity Pressure Visibility Wind Dir Wind Speed Gust Speed Precip Events Conditions
12:04 AM 46.4 °F 39.5 °F 42.8 °F 87% 30.24 in 5.0 mi East 17.3 mph 25.3 mph 0.00 in   Overcast
12:19 AM 46.4 °F 38.7 °F 42.8 °F 87% 30.23 in 1.5 mi East 20.7 mph 26.5 mph 0.00 in   Overcast
12:21 AM 46.4 °F 39.5 °F 42.8 °F 87% 30.23 in 0.8 mi East 17.3 mph 26.5 mph 0.00 in   Overcast
12:35 AM 46.4 °F 40.1 °F 42.8 °F 87% 30.23 in 0.8 mi ENE 15.0 mph 24.2 mph 0.00 in   Overcast
12:39 AM 46.4 °F 39.5 °F 42.8 °F 87% 30.23 in 1.5 mi ENE 17.3 mph 24.2 mph N/A   Overcast
12:46 AM 46.4 °F 39.5 °F 42.8 °F 87% 30.22 in 3.0 mi East 17.3 mph 23.0 mph 0.00 in   Haze
12:48 AM 46.9 °F - 42.1 °F 83% 30.16 in 4.0 mi East 15.0 mph 21.9 mph 0.00 in   Haze
12:58 AM 46.4 °F 39.5 °F 42.8 °F 87% 30.22 in 8.0 mi East 17.3 mph 24.2 mph N/A   Overcast
1:47 AM 46.0 °F 39.0 °F 42.1 °F 86% 30.17 in 1.8 mi East 17.3 mph 23.0 mph 0.00 in   Overcast
1:56 AM 46.4 °F 40.1 °F 42.8 °F 87% 30.22 in 5.0 mi ENE 15.0 mph - 0.00 in Rain Light Rain
2:00 AM 46.4 °F 39.8 °F 42.8 °F 87% 30.22 in 1.8 mi East 16.1 mph - 0.00 in Rain Light Rain
2:05 AM 46.4 °F 39.8 °F 42.8 °F 87% 30.22 in 1.0 mi East 16.1 mph 21.9 mph 0.00 in Rain Light Rain
2:09 AM 46.4 °F 39.8 °F 42.8 °F 87% 30.22 in 0.8 mi ENE 16.1 mph 21.9 mph 0.01 in Rain Rain
2:15 AM 46.4 °F 39.2 °F 42.8 °F 87% 30.22 in 0.2 mi East 18.4 mph 24.2 mph 0.01 in Fog , Rain Light Rain
2:21 AM 46.4 °F 39.0 °F 42.8 °F 87% 30.22 in 0.8 mi East 19.6 mph - 0.01 in Rain Light Rain
2:23 AM 46.4 °F 39.2 °F 42.8 °F 87% 30.22 in 2.0 mi ENE 18.4 mph - 0.01 in Rain Light Rain
2:28 AM - - - N/A% - - North - - N/A   Unknown
2:48 AM 46.0 °F 38.8 °F 41.0 °F 83% 30.15 in 2.5 mi East 18.4 mph 24.2 mph 0.03 in Rain Rain
3:06 AM 46.4 °F 39.5 °F 41.0 °F 81% 30.21 in 3.0 mi East 17.3 mph - 0.02 in Rain Light Rain
3:30 AM 46.4 °F 39.0 °F 39.2 °F 76% 30.19 in 10.0 mi ENE 19.6 mph 28.8 mph 0.03 in Rain Light Rain
3:48 AM 46.0 °F 38.3 °F 39.9 °F 79% 30.12 in 10.0 mi East 20.7 mph - 0.03 in Rain Light Rain
4:48 AM 46.0 °F 38.5 °F 39.9 °F 79% 30.12 in 10.0 mi East 19.6 mph - 0.00 in   Overcast
5:48 AM 45.0 °F 36.6 °F 39.9 °F 82% 30.12 in 10.0 mi ENE 21.9 mph 28.8 mph N/A   Overcast
6:48 AM 46.0 °F 38.3 °F 39.9 °F 79% 30.13 in 10.0 mi East 20.7 mph 29.9 mph N/A   Overcast
7:48 AM 46.0 °F 37.6 °F 39.9 °F 79% 30.13 in 10.0 mi East 24.2 mph 31.1 mph N/A   Overcast
8:29 AM 46.4 °F 38.5 °F 41.0 °F 81% 30.19 in 4.0 mi East 21.9 mph 31.1 mph 0.01 in Rain Light Rain
8:32 AM 46.4 °F 38.3 °F 41.0 °F 81% 30.19 in 1.8 mi East 23.0 mph 31.1 mph 0.01 in Rain Light Rain
8:35 AM 46.4 °F 38.5 °F 41.0 °F 81% 30.19 in 0.8 mi East 21.9 mph 29.9 mph 0.01 in Rain Light Rain
8:38 AM - - - N/A% - 0.2 mi East 23.0 mph 28.8 mph N/A   Unknown
8:48 AM 45.0 °F 36.9 °F 41.0 °F 86% 30.14 in 0.2 mi East 20.7 mph 29.9 mph 0.01 in Fog , Rain Light Rain
8:54 AM 44.6 °F 36.6 °F 41.0 °F 87% 30.19 in 0.5 mi East 19.6 mph - 0.00 in Fog , Rain Light Rain
9:01 AM 44.6 °F 35.7 °F 41.0 °F 87% 30.20 in 0.5 mi East 24.2 mph 29.9 mph 0.00 in Fog , Rain Light Rain
9:16 AM 44.6 °F 36.1 °F 41.0 °F 87% 30.20 in 1.0 mi East 21.9 mph 28.8 mph 0.01 in Rain Light Rain
9:20 AM 44.6 °F 36.6 °F 41.0 °F 87% 30.20 in 2.0 mi East 19.6 mph 28.8 mph N/A Rain Light Rain
9:25 AM - - - N/A% - 4.0 mi East 21.9 mph 31.1 mph N/A   Mist
9:34 AM 44.6 °F 36.1 °F 41.0 °F 87% 30.20 in 6.0 mi East 21.9 mph 29.9 mph 0.01 in Rain Light Rain
9:48 AM 45.0 °F 36.0 °F 41.0 °F 86% 30.15 in 3.0 mi East 25.3 mph 31.1 mph 0.01 in Rain Light Rain
9:52 AM 44.6 °F 35.9 °F 39.2 °F 81% 30.20 in 2.5 mi East 23.0 mph 31.1 mph 0.00 in Rain Light Rain
9:58 AM 44.6 °F 35.5 °F 41.0 °F 87% 30.20 in 3.0 mi East 25.3 mph 33.4 mph N/A Rain Light Rain
10:14 AM 44.6 °F 35.7 °F 41.0 °F 87% 30.20 in 2.5 mi East 24.2 mph 33.4 mph 0.01 in Rain Light Rain
10:24 AM 44.6 °F 36.1 °F 39.2 °F 81% 30.20 in 3.0 mi East 21.9 mph 31.1 mph 0.01 in Rain Light Rain
10:48 AM 46.0 °F 37.8 °F 41.0 °F 83% 30.13 in 6.0 mi East 23.0 mph 32.2 mph 0.01 in Rain Light Rain
11:01 AM 46.4 °F 38.1 °F 41.0 °F 81% 30.19 in 2.5 mi East 24.2 mph 29.9 mph 0.00 in Rain Light Rain
11:06 AM 44.6 °F 36.6 °F 41.0 °F 87% 30.18 in 0.8 mi East 19.6 mph 28.8 mph 0.00 in Rain Light Rain
11:13 AM - - - N/A% - 0.2 mi East 23.0 mph 29.9 mph N/A Fog , Rain Light Rain
11:25 AM 44.6 °F 36.4 °F 41.0 °F 87% 30.17 in 0.2 mi East 20.7 mph 27.6 mph 0.01 in Fog , Rain Light Rain
11:48 AM 46.0 °F 38.3 °F 42.1 °F 86% 30.10 in 0.2 mi East 20.7 mph 28.8 mph 0.01 in Fog , Rain Light Rain
1:48 PM 46.0 °F 38.3 °F 42.1 °F 86% 30.05 in 0.2 mi East 20.7 mph 29.9 mph 0.03 in Fog , Rain Light Rain
2:48 PM 46.0 °F 38.5 °F 42.1 °F 86% 30.05 in 0.2 mi East 19.6 mph 29.9 mph 0.02 in Fog , Rain Light Rain
3:14 PM 46.4 °F 39.5 °F 42.8 °F 87% 30.10 in 0.2 mi East 17.3 mph - 0.01 in Fog , Rain Light Rain
3:36 PM 46.4 °F 39.2 °F 42.8 °F 87% 30.09 in 0.5 mi East 18.4 mph - 0.03 in Fog , Rain Light Rain
3:58 PM 46.4 °F 39.0 °F 42.8 °F 87% 30.08 in 2.0 mi East 19.6 mph 25.3 mph 0.00 in Rain Light Rain
4:03 PM - - - N/A% - - North - - N/A   Unknown
5:10 PM 46.4 °F 39.5 °F 42.8 °F 87% 30.08 in 8.0 mi East 17.3 mph - 0.00 in   Overcast
5:24 PM 46.4 °F 38.7 °F 42.8 °F 87% 30.07 in 10.0 mi East 20.7 mph 26.5 mph 0.00 in   Overcast
5:37 PM 46.4 °F 39.0 °F 42.8 °F 87% 30.06 in 5.0 mi ENE 19.6 mph 26.5 mph 0.00 in Rain Light Rain
5:41 PM 46.4 °F 39.0 °F 42.8 °F 87% 30.06 in 1.5 mi East 19.6 mph 26.5 mph 0.00 in Rain Light Rain
5:43 PM 46.4 °F 39.2 °F 42.8 °F 87% 30.07 in 0.8 mi East 18.4 mph 25.3 mph 0.00 in Rain Light Rain
5:48 PM 46.9 °F - 43.0 °F 86% 30.01 in 0.2 mi East 17.3 mph 25.3 mph 0.00 in Fog , Rain Light Rain
8:48 PM 46.9 °F - 43.0 °F 86% 30.00 in 0.2 mi ENE 12.7 mph - 0.01 in Fog , Rain Light Rain
9:48 PM 46.9 °F - 43.0 °F 86% 30.01 in 0.2 mi ENE 13.8 mph - 0.01 in Fog , Rain Light Rain
10:48 PM - - - N/A% - - North - - N/A   Unknown
11:48 PM 46.9 °F - 43.0 °F 86% 29.98 in 0.2 mi ENE 16.1 mph - 0.03 in Fog , Rain Light Rain